Home   Weather   Brades   Past weeks

Flag for Montserrat Past Weather in Brades, Montserrat — Yesterday and Last 2 Weeks

Now
81 °F

Passing clouds.


Feels Like: 85 °F
Forecast: 81 / 86 °F
Wind: 8 mph from East

Location: Vc Bird International Antigua Airport

Current Time: Jul 26, 2017 at 3:04:06 am

Latest Report: Jul 26, 2017 at 2:00 am


Visibility: N/A

Pressure: 29.98 "Hg

Humidity: 79%

Dew Point: 73 °F

Location of BradesLocation

Past Weather in Brades — Graph

°F

Brades Temperature Yesterday

Maximum temperature yesterday: 88 °F (at 12:00 pm)
Minimum temperature yesterday: 81 °F (at 3:00 am)
Average temperature yesterday: 84 °F

High & Low Weather Summary for the Past Weeks

 TemperatureHumidityPressure
High88 °F (Jul 13, 2:00 pm)94% (Jul 12, 11:00 pm)30.07 "Hg (Jul 12, 11:00 pm)
Low75 °F (Jul 20, 1:33 pm)62% (Jul 11, 1:00 pm)29.95 "Hg (Jul 11, 4:00 pm)
Average83 °F77%30.02 "Hg
* Reported Jul 11 1:00 am — Jul 26 1:00 am, Brades. Weather by CustomWeather, © 2017

Note: Actual official high and low records may vary slightly from our data, if they occured in-between our weather recording intervals... More about our weather records

Advertising

Brades Weather History for the Previous 24 Hours

Scroll right to see more
 ConditionsComfort  
Time TempWeatherWind HumidityBarometerVisibility
1:00 am
Wed, Jul 26
81 °FPassing clouds.7 mph84%30.01 "HgN/A
12:20 am81 °FPassing clouds.9 mph89%30.01 "HgN/A
12:00 am81 °FThunderstorms. Passing clouds.6 mph84%30.01 "HgN/A
11:00 pm
Tue, Jul 25
82 °FPassing clouds.9 mph79%30.04 "HgN/A
10:00 pm82 °FSprinkles. Passing clouds.9 mph79%30.04 "HgN/A
9:00 pm82 °FPassing clouds.8 mph79%30.01 "HgN/A
8:00 pm82 °FPassing clouds.8 mph79%30.01 "HgN/A
7:00 pm82 °FPassing clouds.8 mph79%30.01 "HgN/A
6:00 pm84 °FPassing clouds.8 mph74%29.98 "HgN/A
5:00 pm84 °FPassing clouds.10 mph74%29.98 "HgN/A
4:00 pm86 °FPassing clouds.10 mph66%29.98 "HgN/A
3:00 pm86 °FScattered clouds.12 mph70%29.98 "HgN/A
2:00 pm86 °FScattered showers. Scattered clouds.12 mph70%30.01 "HgN/A
1:00 pm86 °FScattered showers. Scattered clouds.14 mph70%30.01 "HgN/A
12:00 pm88 °FScattered showers. Scattered clouds.13 mph66%30.01 "HgN/A
11:00 am86 °FScattered showers. Scattered clouds.12 mph70%30.04 "HgN/A
10:00 am86 °FScattered clouds.12 mph70%30.04 "HgN/A
9:00 am86 °FScattered showers. Scattered clouds.12 mph70%30.04 "HgN/A
8:00 am84 °FScattered showers. Scattered clouds.12 mph70%30.04 "HgN/A
7:00 am82 °FScattered showers. Scattered clouds.10 mph74%30.01 "HgN/A
6:00 am81 °FScattered clouds.9 mph84%30.01 "HgN/A
5:00 am81 °FSprinkles. Passing clouds.7 mph84%30.01 "HgN/A
4:00 am81 °FPassing clouds.9 mph79%30.01 "HgN/A
3:00 am81 °FPassing clouds.9 mph79%30.01 "HgN/A
Weather by CustomWeather, © 2017

See weather overviewHow to use our weather pages